Orbital Elements at Epoch 2459000.5 (2020-May-31.0) TDB
Reference: JPL 19 (heliocentric ecliptic J2000)
Element | Value | Uncertainty (1-sigma) | Units |
e | .1276447346305115 | 3.5048e-08 | |
a | 2.406389323251181 | 1.066e-08 | au |
q | 2.099226396667088 | 8.4681e-08 | au |
i | 2.283666564415819 | 5.4117e-06 | deg |
node | 154.6114409641467 | 0.00010609 | deg |
peri | 123.4326019655844 | 0.00010852 | deg |
M | 241.2276712362443 | 2.4573e-05 | deg |
tp | 2459450.342035739724 (2021-Aug-23.84203574) | 9.4316e-05 | TDB |
period | 1363.475268624345 3.73 | 9.0599e-06 2.48e-08 | d yr |
n | .2640311916791978 | 1.7544e-09 | deg/d |
Q | 2.713552249835275 | 1.2021e-08 | au |
|
| | Orbit Determination Parameters
Additional Information
|